Skip Page Navigation
NASA JPL Caltech
NASA Logo - Jet Propulsion Laboratory + View the NASA Portal
+ Center for Near-Earth Object Studies
JPL Home Earth Solar System Stars & Galaxies Technology
JPL Solar System Dynamics
BODIES ORBITS EPHEMERIDES TOOLS PHYSICAL DATA DISCOVERY FAQ SITE MAP
JPL Small-Body Database Browser
Search: [ help ]  
187471 (2006 BV72)
Classification: Jupiter Trojan          SPK-ID: 2187471
Ephemeris | Orbit Diagram | Orbital Elements | Mission Design | Physical Parameters | Discovery Circumstances ]

[ show orbit diagram ]
Orbital Elements at Epoch 2459200.5 (2020-Dec-17.0) TDB
Reference: JPL 14 (heliocentric ecliptic J2000)
 Element Value Uncertainty (1-sigma)   Units 
e .06750451147105155 6.9883e-08  
a 5.268910950422915 1.7414e-07 au
q 4.913235690730142 4.2208e-07 au
i 8.344012113174086 6.4473e-06 deg
node 105.0870252992517 5.8457e-05 deg
peri 218.1842696577336 8.8641e-05 deg
M 258.4739939738278 7.2215e-05 deg
tp 2460446.317754118913
(2024-May-15.81775412)
0.00091886 TDB
period 4417.532108642116
12.09
0.000219
5.996e-07
d
yr
n .08149346538890437 4.0401e-09 deg/d
Q 5.624586210115687 1.859e-07 au
  Orbit Determination Parameters
   # obs. used (total)      193  
   data-arc span      7118 days (19.49 yr)  
   first obs. used      2001-09-18  
   last obs. used      2021-03-15  
   planetary ephem.      DE441  
   SB-pert. ephem.      SB441-N16  
   condition code      0  
   norm. resid. RMS      .57662  
   source      ORB  
   producer      Otto Matic  
   solution date      2021-Apr-13 21:55:33  

Additional Information
 Earth MOID = 3.90332 au 
 Jupiter MOID = .203903 au 
 T_jup = 2.974 
[ show covariance matrix ]

Ephemeris | Orbit Diagram | Orbital Elements | Mission Design | Physical Parameters | Discovery Circumstances ]

Physical Parameter Table
Parameter Symbol Value Units Sigma Reference Notes
absolute magnitude H 13.49   n/a E2021B55  

187471 (2006 BV72)          Discovered 2006-Jan-23 by Spacewatch at Kitt Peak
Reference: 20080520/Numbers.arcLast Updated: 2008-05-22

Alternate Designations
 2006 BV72 = 2008 GT80 
Ephemeris | Orbit Diagram | Orbital Elements | Mission Design | Physical Parameters | Discovery Circumstances ]
ABOUT SSD CREDITS/AWARDS PRIVACY/COPYRIGHT GLOSSARY LINKS
FirstGov 2021-Apr-17 12:44 UT
(server date/time)  
NASA Home Page
Site Manager:   Ryan S. Park
Webmaster  Alan B. Chamberlin